TimeEST,TemperatureF,Dew PointF,Humidity,Sea Level PressureIn,VisibilityMPH,Wind Direction,Wind SpeedMPH,Gust SpeedMPH,PrecipitationIn,Events,Conditions,WindDirDegrees,DateUTC
12:56 AM,48.0,41.0,77,29.68,-9999.0,Variable,5.8,-,N/A,,Unknown,0,2012-12-04 05:56:00
1:56 AM,46.0,37.9,73,29.70,-9999.0,Variable,6.9,-,N/A,,Unknown,0,2012-12-04 06:56:00
2:56 AM,39.9,35.1,83,29.72,-9999.0,South,4.6,-,N/A,,Unknown,180,2012-12-04 07:56:00
3:56 AM,42.1,34.0,73,29.74,-9999.0,South,5.8,-,N/A,,Unknown,190,2012-12-04 08:56:00
4:56 AM,39.9,33.1,77,29.75,-9999.0,South,3.5,-,N/A,,Unknown,170,2012-12-04 09:56:00
5:56 AM,39.0,32.0,76,29.76,-9999.0,South,4.6,-,N/A,,Unknown,170,2012-12-04 10:56:00
6:56 AM,36.0,30.9,82,29.78,-9999.0,South,8.1,-,N/A,,Unknown,190,2012-12-04 11:56:00
7:56 AM,35.1,30.0,82,29.82,-9999.0,South,8.1,-,N/A,,Unknown,190,2012-12-04 12:56:00
8:56 AM,37.0,28.9,73,29.84,-9999.0,SW,4.6,-,N/A,,Unknown,220,2012-12-04 13:56:00
9:56 AM,39.9,27.0,60,29.86,-9999.0,West,6.9,-,N/A,,Unknown,280,2012-12-04 14:56:00
10:56 AM,39.9,26.1,58,29.87,-9999.0,WNW,12.7,17.3,N/A,,Unknown,300,2012-12-04 15:56:00
11:56 AM,37.9,27.0,65,29.89,-9999.0,NNW,16.1,21.9,N/A,,Unknown,330,2012-12-04 16:56:00
12:56 PM,36.0,26.1,67,29.90,-9999.0,NW,17.3,25.3,N/A,,Unknown,320,2012-12-04 17:56:00
1:56 PM,35.1,23.0,61,29.93,-9999.0,NW,15.0,24.2,N/A,,Unknown,310,2012-12-04 18:56:00
2:56 PM,34.0,19.9,56,29.95,-9999.0,NNW,13.8,23.0,N/A,,Unknown,330,2012-12-04 19:56:00
3:56 PM,32.0,18.0,56,30.00,-9999.0,NW,12.7,26.5,N/A,,Unknown,320,2012-12-04 20:56:00
4:56 PM,30.9,17.1,57,30.06,-9999.0,NW,21.9,31.1,N/A,,Unknown,320,2012-12-04 21:56:00
5:56 PM,30.0,15.1,54,30.09,-9999.0,WNW,12.7,25.3,N/A,,Unknown,300,2012-12-04 22:56:00
6:56 PM,28.9,16.0,58,30.11,-9999.0,NW,20.7,33.4,N/A,,Unknown,310,2012-12-04 23:56:00
7:56 PM,28.0,19.0,69,30.13,-9999.0,WNW,10.4,21.9,N/A,,Unknown,300,2012-12-05 00:56:00
8:56 PM,30.0,21.0,69,30.14,-9999.0,WNW,11.5,20.7,0.02,,Unknown,300,2012-12-05 01:56:00
9:56 PM,30.9,19.9,64,30.15,-9999.0,NW,20.7,26.5,N/A,,Unknown,310,2012-12-05 02:56:00
10:56 PM,30.9,21.9,69,30.17,-9999.0,NW,26.5,35.7,N/A,,Unknown,320,2012-12-05 03:56:00
11:56 PM,28.9,24.1,82,30.20,-9999.0,NNW,21.9,34.5,N/A,,Unknown,330,2012-12-05 04:56:00